TimeEST,TemperatureF,Dew PointF,Humidity,Sea Level PressureIn,VisibilityMPH,Wind Direction,Wind SpeedMPH,Gust SpeedMPH,PrecipitationIn,Events,Conditions,WindDirDegrees,DateUTC
12:54 AM,39.9,26.1,58,29.76,10.0,WSW,6.9,-,N/A,,Clear,240,2014-01-20 05:54:00
1:54 AM,37.9,27.0,65,29.76,10.0,SW,8.1,-,N/A,,Clear,220,2014-01-20 06:54:00
2:54 AM,39.0,27.0,62,29.76,10.0,SW,12.7,-,N/A,,Clear,220,2014-01-20 07:54:00
3:54 AM,37.9,27.0,65,29.74,10.0,SW,9.2,-,N/A,,Clear,220,2014-01-20 08:54:00
4:54 AM,37.0,27.0,67,29.74,10.0,SW,8.1,-,N/A,,Clear,220,2014-01-20 09:54:00
5:54 AM,37.9,27.0,65,29.75,10.0,WSW,8.1,-,N/A,,Clear,240,2014-01-20 10:54:00
6:54 AM,37.0,26.1,65,29.73,10.0,SW,8.1,-,N/A,,Clear,220,2014-01-20 11:54:00
7:54 AM,39.9,26.1,58,29.71,10.0,SW,10.4,-,N/A,,Clear,220,2014-01-20 12:54:00
8:54 AM,39.9,27.0,60,29.71,10.0,SW,10.4,-,N/A,,Clear,220,2014-01-20 13:54:00
9:54 AM,42.1,26.1,53,29.73,10.0,SW,9.2,-,N/A,,Clear,230,2014-01-20 14:54:00
10:54 AM,45.0,26.1,48,29.72,10.0,SW,6.9,-,N/A,,Clear,230,2014-01-20 15:54:00
11:54 AM,48.9,26.1,41,29.70,10.0,West,9.2,-,N/A,,Clear,270,2014-01-20 16:54:00
12:54 PM,52.0,25.0,35,29.67,10.0,WSW,10.4,-,N/A,,Unknown,240,2014-01-20 17:54:00
1:54 PM,54.0,25.0,33,29.66,10.0,West,12.7,23.0,N/A,,Clear,280,2014-01-20 18:54:00
2:54 PM,55.0,26.1,33,29.67,10.0,West,9.2,-,N/A,,Clear,270,2014-01-20 19:54:00
3:54 PM,54.0,26.1,34,29.71,10.0,WNW,4.6,-,N/A,,Clear,290,2014-01-20 20:54:00
4:54 PM,53.1,26.1,35,29.74,10.0,West,4.6,-,N/A,,Clear,270,2014-01-20 21:54:00
5:54 PM,46.9,27.0,46,29.78,10.0,NNW,3.5,-,N/A,,Clear,340,2014-01-20 22:54:00
6:54 PM,43.0,28.0,56,29.81,10.0,Calm,Calm,-,N/A,,Clear,0,2014-01-20 23:54:00
7:54 PM,44.1,26.1,49,29.84,10.0,North,4.6,-,N/A,,Clear,350,2014-01-21 00:54:00
8:54 PM,43.0,26.1,51,29.86,10.0,North,4.6,-,N/A,,Clear,350,2014-01-21 01:54:00
9:54 PM,42.1,26.1,53,29.88,10.0,Calm,Calm,-,N/A,,Clear,0,2014-01-21 02:54:00
10:54 PM,39.9,26.1,58,29.90,10.0,Calm,Calm,-,N/A,,Clear,0,2014-01-21 03:54:00
11:54 PM,37.9,26.1,62,29.90,10.0,North,3.5,-,N/A,,Clear,360,2014-01-21 04:54:00